Flag for Poland Weather past 2 weeks in Radom, Poland

Now
71 °F

Scattered clouds.


Feels Like: 76 °F
Forecast: 50 / 69 °F
Wind: 7 mph from Southwest

Location: Kielce

Current Time: May 30, 2015 at 1:12:37 PM

Latest Report: May 30, 2015 at 12:00 PM


Visibility: 17 mi

Pressure: 29.86 "Hg

Humidity: 58%

Dew point: 55 °F

Location of RadomLocation

Historic Weather in Radom — Graph

°F

Radom temperature yesterday

Maximum temperature yesterday: 69 °F (at 4:00 PM)
Minimum temperature yesterday: 35 °F (at 5:00 AM)
Average temperature yesterday: 55 °F

Past Weeks' High & Low Weather Summary

 TemperatureHumidityPressure
High77 °F (May 19, 4:00 PM)100% (May 16, 3:00 AM)30.27 "Hg (May 16, 3:00 AM)
Low31 °F (May 18, 5:00 AM)34% (May 16, 4:00 PM)29.73 "Hg (May 19, 5:00 PM)
Average54 °F77%29.99 "Hg
* Reported May 15 11:00 AM — May 30 11:00 AM, Radom, Weather by CustomWeather, © 2015

Note: Actual official high and low records may vary slightly from our data, if they occured in-between our weather recording intervals... More about our weather records

Advertising

Radom weather history for previous 24 hours

 ConditionsComfort  
Time TempWeatherWind HumidityBarometerVisibility
11:00 AM
Sat, May 30
66 °FScattered clouds.7 mph60%29.87 "Hg18 mi
10:00 AM64 °FOvercast.3 mph72%29.88 "Hg16 mi
9:00 AM61 °FOvercast.3 mph74%29.88 "Hg14 mi
8:00 AM56 °FPartly sunny.2 mph85%29.90 "Hg10 mi
7:00 AM52 °FOvercast.1 mph93%29.90 "Hg6 mi
6:00 AM49 °FOvercast.1 mph95%29.90 "Hg6 mi
4:00 AM46 °FFog.No wind96%29.90 "Hg5 mi
3:00 AM47 °FPassing clouds.1 mph94%29.90 "Hg6 mi
2:00 AM49 °FPassing clouds.1 mph94%29.91 "Hg6 mi
1:00 AM50 °FPassing clouds.1 mph90%29.92 "Hg6 mi
12:00 AM52 °FPassing clouds.1 mph88%29.92 "Hg6 mi
10:00 PM
Fri, May 29
55 °FPassing clouds.1 mph83%29.91 "Hg11 mi
9:00 PM58 °FOvercast.1 mph75%29.90 "Hg13 mi
8:00 PM63 °FOvercast.1 mph64%29.89 "Hg14 mi
7:00 PM64 °FOvercast.2 mph59%29.89 "Hg25 mi
6:00 PM67 °FPassing clouds.2 mph51%29.89 "Hg19 mi
5:00 PM69 °FScattered clouds.2 mph50%29.90 "Hg19 mi
4:00 PM69 °FPartly sunny.2 mph50%29.90 "Hg19 mi
3:00 PM65 °FOvercast.3 mph52%29.92 "Hg25 mi
2:00 PM66 °FPartly sunny.3 mph53%29.92 "Hg22 mi
1:00 PM67 °FPassing clouds.5 mph48%29.93 "Hg19 mi
Weather by CustomWeather, © 2015

See weather overviewHow to use our weather pages